{"data":{"norad_id":58451,"intl_designator":"2023-183Q","name":"STARLINK-30944","alt_names":[],"object_type":"PAYLOAD","status":"ACTIVE","operator":null,"country":"US","launch_date":"2023-11-28","launch_site_code":"AFETR","launch_vehicle":null,"mission":null,"orbit_class":"UNKNOWN","rcs_meters":null,"size_class":null,"mass_kg":null,"dimensions":null,"purposes":["comms"],"wikipedia_slug":null,"has_3d_model":false,"image_url":null,"decayed_at":null,"tle_current":{"epoch":"2026-05-24T21:58:17.567904Z","epoch_age_seconds":78819,"freshness":"FRESH","line1":"1 58451U 23183Q   26144.91548111  .00002079  00000+0  85076-4 0  9994","line2":"2 58451  43.0020 331.0024 0001915 259.3354 100.7282 15.27577462138361","mean_motion":15.27577462,"eccentricity":0.0001915,"inclination_deg":43.002,"raan_deg":331.0024,"arg_perigee_deg":259.3354,"mean_anomaly_deg":100.7282,"bstar":8.5076e-5,"rev_number":13836,"period_min":94.266905333538,"perigee_km":481.74277714248,"apogee_km":484.37061432795,"semimajor_km":6861.1936957352,"source":"CELESTRAK","updated_at":"2026-05-25T13:38:18.624847Z"}}}